Home   Weather   Osage City   Past weeks

Flag for USA Past Weather in Osage City, Kansas, USA — Yesterday and Last 2 Weeks

Now
82 °F

Clear.


Feels Like: 87 °F
Forecast: 79 / 102 °F
Wind: 10 mph from South

Location: Forbes Field

Current Time: Jul 21, 2017 at 4:46:23 am

Latest Report: Jul 21, 2017 at 3:53 am


Visibility: 10 mi

Pressure: 29.88 "Hg

Humidity: 74%

Dew Point: 73 °F

Location of Osage CityLocation

Past Weather in Osage City — Graph

°F

Osage City Temperature Yesterday

Maximum temperature yesterday: 100 °F (at 2:53 pm)
Minimum temperature yesterday: 78 °F (at 5:53 am)
Average temperature yesterday: 89 °F

High & Low Weather Summary for the Past Weeks

 TemperatureHumidityPressure
High100 °F (Jul 20, 2:53 pm)97% (Jul 8, 2:53 am)30.16 "Hg (Jul 8, 2:53 am)
Low62 °F (Jul 8, 4:53 am)39% (Jul 8, 3:53 pm)29.76 "Hg (Jul 11, 5:53 pm)
Average83 °F70%29.98 "Hg
* Reported Jul 6 2:53 am — Jul 21 2:53 am, Osage City. Weather by CustomWeather, © 2017

Note: Actual official high and low records may vary slightly from our data, if they occured in-between our weather recording intervals... More about our weather records

Advertising

Osage City Weather History for the Previous 24 Hours

Scroll right to see more
 ConditionsComfort  
Time TempWeatherWind HumidityBarometerVisibility
2:53 am
Fri, Jul 21
82 °FClear.9 mph77%29.90 "Hg10 mi
1:53 am83 °FClear.9 mph74%29.90 "Hg10 mi
12:53 am84 °FClear.12 mph72%29.90 "Hg10 mi
11:53 pm
Thu, Jul 20
84 °FClear.8 mph72%29.90 "Hg10 mi
10:53 pm85 °FClear.7 mph72%29.91 "Hg10 mi
9:53 pm87 °FClear.12 mph67%29.90 "Hg10 mi
8:53 pm89 °FClear.9 mph63%29.89 "Hg10 mi
7:53 pm93 °FSunny.8 mph54%29.89 "Hg10 mi
6:53 pm97 °FSunny.8 mph46%29.89 "Hg10 mi
5:53 pm99 °FSunny.10 mph42%29.89 "Hg10 mi
4:53 pm100 °FSunny.13 mph41%29.91 "Hg10 mi
3:53 pm100 °FSunny.10 mph43%29.93 "Hg10 mi
2:53 pm100 °FSunny.14 mph43%29.94 "Hg10 mi
1:53 pm98 °FSunny.12 mph46%29.96 "Hg10 mi
12:53 pm97 °FSunny.14 mph46%29.97 "Hg10 mi
11:53 am94 °FSunny.15 mph54%29.98 "Hg10 mi
10:53 am92 °FSunny.12 mph58%29.98 "Hg10 mi
9:53 am89 °FSunny.15 mph59%29.98 "Hg10 mi
8:53 am85 °FSunny.12 mph68%29.99 "Hg10 mi
7:53 am81 °FSunny.10 mph77%29.98 "Hg10 mi
6:53 am78 °FSunny.8 mph82%29.99 "Hg10 mi
5:53 am78 °FClear.8 mph82%29.98 "Hg10 mi
4:53 am79 °FClear.9 mph79%29.97 "Hg10 mi
Weather by CustomWeather, © 2017

See weather overviewHow to use our weather pages